Flag Weather past 2 weeks in Key West, Florida, U.S.A.

Now
79 °F

Sunny.


Feels Like: 81 °F
Forecast: 72 / 83 °F
Wind: 3 mph from West

Location: Key West International Airport

Current Time: Oct 30, 2014 at 7:53:26 PM

Latest Report: Oct 30, 2014 at 6:53 PM


Visibility: 10 mi

Pressure: 29.89 "Hg

Humidity: 69%

Dew point: 68 °F

Location of Key WestLocation

Historic Weather in Key West — Graph

°F

Key West temperature yesterday

Maximum temperature yesterday: 84 °F (at 3:53 PM)
Minimum temperature yesterday: 76 °F (at 6:53 AM)
Average temperature yesterday: 80 °F

Past Weeks' High & Low Weather Summary

 TemperatureHumidityPressure
High85 °F (Oct 20, 12:53 PM)100% (Oct 21, 10:53 AM)30.11 "Hg (Oct 21, 10:53 AM)
Low70 °F (Oct 19, 3:53 AM)49% (Oct 19, 2:53 PM)29.80 "Hg (Oct 24, 4:53 PM)
Average78 °F79%29.95 "Hg
* Reported Oct 15 6:53 PM — Oct 30 6:53 PM, Key West, Weather by CustomWeather, © 2014

Note: Actual official high and low records may vary slightly from our data, if they occured in-between our weather recording intervals... More about our weather records

Advertising

Key West weather history for previous 24 hours

 ConditionsComfort  
Time TempWeatherWind HumidityBarometerVisibility
6:53 PM
Oct 30
79 °FSunny.3 mph69%29.89 "Hg10 mi
5:53 PM81 °FSunny.5 mph62%29.88 "Hg10 mi
4:53 PM81 °FScattered clouds.5 mph62%29.88 "Hg10 mi
3:53 PM82 °FPassing clouds.5 mph60%29.90 "Hg10 mi
2:53 PM81 °FSunny.6 mph62%29.91 "Hg10 mi
1:53 PM82 °FPassing clouds.6 mph63%29.93 "Hg10 mi
12:53 PM81 °FPassing clouds.6 mph65%29.96 "Hg10 mi
11:53 AM80 °FCloudy.7 mph74%29.98 "Hg10 mi
10:53 AM80 °FSunny.7 mph74%29.99 "HgN/A
9:53 AM81 °FPassing clouds.3 mph72%29.99 "HgN/A
8:53 AM80 °FOvercast.6 mph79%29.98 "HgN/A
7:53 AM75 °FPassing clouds.3 mph94%29.97 "Hg10 mi
6:53 AM75 °FPassing clouds.No wind94%29.96 "HgN/A
5:53 AM74 °FPassing clouds.No wind100%29.95 "HgN/A
4:53 AM75 °FClear.3 mph94%29.95 "HgN/A
3:53 AM76 °FClear.No wind91%29.95 "HgN/A
2:53 AM77 °FOvercast.3 mph88%29.97 "HgN/A
1:53 AM76 °FPartly cloudy.3 mph91%29.98 "HgN/A
12:53 AM76 °FClear.No wind91%29.98 "HgN/A
11:53 PM
Oct 29
76 °FClear.3 mph97%29.99 "HgN/A
10:53 PMN/AN/AN/A30.01 "HgN/A
9:53 PMN/AN/AN/A30.01 "HgN/A
8:53 PM78 °FClear.3 mph84%30.00 "Hg10 mi
7:53 PM79 °FOvercast.5 mph82%29.99 "Hg10 mi
Weather by CustomWeather, © 2014

See weather overviewHow to use our weather pages